Flag for Portugal Weather past 2 weeks in Beja, Portugal

Now
86 °F

Sunny.


Feels Like: 83 °F
Forecast: 59 / 87 °F
Wind: 14 mph from Northwest

Location: Beja Airport

Current Time: Aug 20, 2014 at 6:37:42 PM

Latest Report: Aug 20, 2014 at 6:00 PM


Visibility: 10 mi

Pressure: 30.01 "Hg

Humidity: 22%

Dew point: 43 °F

Location of BejaLocation

Historic Weather in Beja — Graph

°F

Beja temperature yesterday

Maximum temperature yesterday: 84 °F (at 4:00 PM)
Minimum temperature yesterday: 55 °F (at 5:00 AM)
Average temperature yesterday: 67 °F

Past Weeks' High & Low Weather Summary

 TemperatureHumidityPressure
High97 °F (Aug 16, 6:00 PM)100% (Aug 6, 8:00 AM)30.12 "Hg (Aug 6, 8:00 AM)
Low55 °F (Aug 14, 5:00 AM)12% (Aug 15, 5:00 PM)29.83 "Hg (Aug 17, 7:00 PM)
Average74 °F58%30.01 "Hg
* Reported Aug 5 5:00 PM — Aug 20 5:00 PM, Beja, Weather by CustomWeather, © 2014

Note: Actual official high and low records may vary slightly from our data, if they occured in-between our weather recording intervals... More about our weather records

Advertising

Beja weather history for previous 24 hours

 ConditionsComfort  
Time TempWeatherWind HumidityBarometerVisibility
5:00 PM
Aug 20
88 °FPassing clouds.14 mph19%30.01 "HgN/A
4:00 PM88 °FPassing clouds.10 mph17%30.04 "HgN/A
3:00 PM86 °FPassing clouds.8 mph19%30.04 "HgN/A
2:00 PM84 °FPassing clouds.10 mph23%30.07 "HgN/A
1:00 PM81 °FPassing clouds.8 mph30%30.07 "HgN/A
12:00 PM75 °FPassing clouds.7 mph41%30.07 "HgN/A
11:00 AM72 °FPassing clouds.7 mph53%30.09 "HgN/A
10:00 AM66 °FSunny.10 mph73%30.07 "Hg10 mi
9:00 AM61 °FLight fog.5 mph94%30.07 "Hg5 mi
8:00 AM57 °FFog.2 mph100%30.07 "Hg1 mi
7:00 AM55 °FFog.7 mph100%30.07 "Hg1 mi
6:00 AM57 °FClear.6 mph100%30.04 "Hg4 mi
5:00 AM59 °FClear.6 mph94%30.04 "Hg4 mi
4:00 AM59 °FClear.10 mph94%30.04 "Hg10 mi
3:00 AM59 °FClear.9 mph94%30.07 "Hg10 mi
2:00 AM61 °FClear.9 mph88%30.07 "Hg10 mi
1:00 AM61 °FClear.9 mph88%30.07 "Hg10 mi
12:00 AM63 °FClear.8 mph83%30.07 "Hg10 mi
11:00 PM
Aug 19
64 °FClear.8 mph83%30.07 "Hg10 mi
10:00 PM66 °FClear.13 mph73%30.04 "Hg10 mi
9:00 PM70 °FSunny.13 mph64%30.04 "Hg10 mi
8:00 PM75 °FSunny.16 mph50%30.01 "Hg10 mi
7:00 PM79 °FSunny.15 mph45%29.98 "Hg10 mi
6:00 PM82 °FPassing clouds.14 mph30%29.98 "HgN/A
Weather by CustomWeather, © 2014

See weather overviewHow to use our weather pages